ガン彗星

65P/Gunn (2017)

English version
Home page
Updated on April 4, 2021

---------------------------------------------------------------------

・ プロフィール

・ 写真集

・ 軌道要素

Epoch 2017 Oct. 14.0 TT = JDT 2458040.5
T 2017 Oct. 16.80063 TT                                 Rudenko
q   2.9100430            (2000.0)            P               Q
n   0.12895909     Peri.  213.53862     +0.09060054     +0.98586003
a   3.8800269      Node    62.01958     -0.87503779     +0.14638908
e   0.2499941      Incl.    9.18515     -0.47550017     -0.08154893
P   7.64
From 6124 observations 1971 Nov. 18-2021 Feb. 14, mean residual 0".9.
     Nongravitational parameters A1 = +1.19, A2 = +0.3027.

・ 星図

・ 光度変化

        m1 = 8.5 + 5 logΔ + 10.0 log r(t + 200)  [    ,-200]  (              〜2017年 3月30日)
        m1 = 5.0 + 5 logΔ + 17.0 log r(t + 200)  [-200,    ]  (2017年 3月30日〜              )

---------------------------------------------------------------------

軌道要素はM.P.E.C. 2021-F20に掲載されたものです。
星図はステラナビゲータ Ver.8 (アストロアーツ) で作成したものです。
光度グラフはComet for Windowsで作成したものです。

---------------------------------------------------------------------

Copyright(C) Seiichi Yoshida (comet@aerith.net). All rights reserved.